NI4CE-10 Weather Reports


time (UTC)temp
C
wind
direction
speed
KPH
gust
KPH
rain 1hr
cm
rain 24hr
cm
rain mn
cm
humidity
%
barometer
mb
20260901095306 24 45 0.0 1.6 0.00 2.79 0.00 100 1016.9
20260901095114 24 45 0.0 3.2 0.00 2.79 0.00 100 1016.9
20260901094803 24 45 0.0 3.2 0.00 2.79 0.00 100 1016.9
20260901094303 24 67 0.0 0.0 0.00 2.79 0.00 100 1016.9
20260901093803 24 67 0.0 0.0 0.00 2.79 0.00 100 1016.9
20260901093303 24 67 0.0 0.0 0.00 2.79 0.00 100 1016.9
20260901093055 24 67 0.0 0.0 0.00 2.79 0.00 100 1016.8
20260901092803 24 67 0.0 0.0 0.00 2.79 0.00 100 1016.8
20260901092305 24 67 0.0 0.0 0.00 2.79 0.00 100 1016.9
20260901091803 24 67 0.0 0.0 0.00 2.79 0.00 100 1016.8
20260901091303 24 67 0.0 0.0 0.00 2.79 0.00 100 1016.8
20260901090803 24 67 0.0 0.0 0.00 2.79 0.00 100 1016.8
20260901090303 24 67 0.0 0.0 0.00 2.79 0.00 100 1016.8
20260901085803 24 67 0.0 0.0 0.00 2.79 0.00 100 1016.8
20260901085305 24 67 0.0 0.0 0.00 2.79 0.00 100 1016.7
20260901085029 24 67 0.0 0.0 0.00 2.79 0.00 100 1016.8
20260901084803 24 67 0.0 0.0 0.00 2.79 0.00 100 1016.8
20260901084303 24 67 0.0 0.0 0.00 2.79 0.00 100 1016.7
20260901083803 24 67 0.0 0.0 0.00 2.79 0.00 100 1016.6
20260901083303 24 67 0.0 0.0 0.00 2.79 0.00 100 1016.7
20260901082803 24 67 0.0 0.0 0.00 2.79 0.00 100 1016.7
20260901082306 24 67 0.0 0.0 0.00 2.79 0.00 100 1016.8
20260901081803 24 67 0.0 0.0 0.00 2.79 0.00 100 1016.8
20260901081304 25 67 0.0 0.0 0.00 2.79 0.00 100 1016.7
20260901081038 24 67 0.0 0.0 0.00 2.79 0.00 100 1016.7
20260901080804 24 67 0.0 0.0 0.00 2.79 0.00 100 1016.7
20260901080633 25 67 0.0 1.6 0.00 2.79 0.00 100 1016.7
20260901080304 25 67 0.0 1.6 0.00 2.79 0.00 100 1016.7
20260901075804 25 56 1.6 1.6 0.00 2.79 0.00 100 1016.7
20260901075307 25 45 0.0 0.0 0.00 2.79 0.00 100 1016.7
20260901075035 25 45 0.0 0.0 0.00 2.79 0.00 100 1016.6
20260901074804 25 45 0.0 0.0 0.00 2.79 0.00 100 1016.6
20260901074304 24 45 0.0 0.0 0.00 2.79 0.00 100 1016.6
20260901073804 25 45 0.0 0.0 0.00 2.79 0.00 100 1016.7
20260901073304 25 45 0.0 3.2 0.00 2.79 0.00 100 1016.7
20260901072804 25 54 3.2 4.8 0.00 2.79 0.00 100 1016.7
20260901072308 25 40 0.0 1.6 0.00 2.79 0.00 100 1016.8
20260901071804 25 32 0.0 0.0 0.00 2.79 0.00 100 1016.7
20260901071304 25 32 0.0 0.0 0.00 2.79 0.00 100 1016.8
20260901071034 25 32 0.0 0.0 0.00 2.79 0.00 100 1016.9
20260901070804 25 32 0.0 0.0 0.00 2.79 0.00 100 1016.9
20260901070304 25 32 0.0 3.2 0.00 2.79 0.00 100 1017.0
20260901065804 25 43 1.6 6.4 0.00 2.79 0.00 100 1017.2
20260901065305 25 45 0.0 1.6 0.00 2.79 0.00 100 1017.1
20260901065204 25 26 0.0 1.6 0.00 2.79 0.00 100 1017.1
20260901064804 25 26 0.0 1.6 0.00 2.79 0.00 100 1017.1
20260901064304 25 26 0.0 3.2 0.00 2.79 0.00 100 1017.2
20260901063804 25 35 0.0 1.6 0.00 2.79 0.00 100 1017.3
20260901063304 25 19 0.0 6.4 0.00 2.79 0.00 100 1017.4
20260901062804 25 8 0.0 11.3 0.00 2.79 0.00 100 1017.4
20260901062309 25 40 8.0 8.0 0.00 2.79 0.00 100 1017.4
20260901061804 25 43 0.0 8.0 0.00 2.79 0.00 100 1017.5
20260901061304 25 30 3.2 6.4 0.00 2.79 0.00 100 1017.5
20260901060804 25 39 1.6 4.8 0.00 2.79 0.00 100 1017.5
20260901060304 25 42 1.6 6.4 0.00 2.79 0.00 100 1017.6
20260901060039 25 18 6.4 6.4 0.00 2.79 0.00 100 1017.6
20260901055804 25 18 6.4 6.4 0.00 2.79 0.00 100 1017.6
20260901055306 25 16 0.0 0.0 0.00 2.79 0.00 100 1017.7
20260901055214 25 16 0.0 0.0 0.00 2.79 0.00 100 1017.8
20260901054804 25 16 0.0 0.0 0.00 2.79 0.00 100 1017.8
20260901054304 25 16 0.0 0.0 0.00 2.79 0.00 100 1017.9
20260901053804 25 15 0.0 0.0 0.00 2.79 0.00 100 1018.0
20260901053304 25 15 0.0 0.0 0.00 2.79 0.00 100 1018.0
20260901052804 25 15 0.0 0.0 0.00 2.79 0.00 100 1018.1
20260901052307 25 15 0.0 0.0 0.00 2.79 0.00 100 1018.2
20260901052137 25 15 0.0 0.0 0.00 2.79 0.00 100 1018.2
20260901051804 25 15 0.0 0.0 0.00 2.79 0.00 100 1018.2
20260901051304 25 15 0.0 0.0 0.00 2.79 0.00 100 1018.3
20260901050804 25 15 0.0 0.0 0.00 2.79 0.00 100 1018.4
20260901050304 25 15 0.0 0.0 0.00 2.79 0.00 100 1018.5
20260901045804 25 15 0.0 4.8 0.00 2.79 0.00 100 1018.6
20260901045347 25 70 0.0 0.0 0.00 2.79 2.79 100 1018.6
20260901045306 25 70 0.0 0.0 0.00 2.79 2.79 100 1018.6
20260901045125 25 70 0.0 0.0 0.00 2.79 2.79 100 1018.6
20260901044804 25 70 0.0 0.0 0.00 2.79 2.79 100 1018.6
20260901044304 25 70 0.0 0.0 0.00 2.79 2.79 100 1018.6
20260901043804 25 70 0.0 0.0 0.00 2.79 2.79 100 1018.6
20260901043304 25 70 0.0 0.0 0.00 2.79 2.79 100 1018.7
20260901042804 25 70 0.0 0.0 0.00 2.79 2.79 100 1018.6
20260901042306 25 70 0.0 0.0 0.00 2.79 2.79 100 1018.7
20260901041805 25 70 0.0 0.0 0.00 2.79 2.79 100 1018.7
20260901041305 25 70 0.0 0.0 0.00 2.79 2.79 100 1018.6
20260901040805 25 70 0.0 0.0 0.00 2.79 2.79 100 1018.7
20260901040305 25 70 0.0 0.0 0.00 2.79 2.79 100 1018.7
20260901035805 25 70 0.0 0.0 0.00 2.79 2.79 100 1018.7
20260901035306 25 70 0.0 0.0 0.00 2.79 2.79 100 1018.7
20260901034805 25 70 0.0 0.0 0.00 2.79 2.79 100 1018.8
20260901034305 25 70 0.0 0.0 0.00 2.79 2.79 100 1018.8
20260901033805 25 70 0.0 0.0 0.00 2.79 2.79 100 1018.8
20260901033305 25 70 0.0 0.0 0.00 2.79 2.79 100 1018.8
20260901032805 25 70 0.0 0.0 0.00 2.79 2.79 100 1018.8
20260901032306 25 70 0.0 0.0 0.00 2.79 2.79 100 1018.9
20260901031805 25 70 0.0 0.0 0.00 2.79 2.79 100 1018.8
20260901031305 25 70 0.0 0.0 0.00 2.79 2.79 100 1018.9
20260901030805 25 70 0.0 0.0 0.00 2.79 2.79 100 1018.7
20260901030305 25 70 0.0 0.0 0.00 2.79 2.79 100 1018.7
20260901030135 25 70 0.0 0.0 0.00 2.79 2.79 100 1018.7
20260901025805 25 70 0.0 0.0 0.00 2.79 2.79 100 1018.7
20260901025306 25 70 0.0 0.0 0.00 2.79 2.79 100 1018.8
20260901024805 25 70 0.0 0.0 0.00 2.79 2.79 100 1018.7
20260901024305 25 70 0.0 0.0 0.00 2.79 2.79 100 1018.7
20260901023805 26 70 0.0 0.0 0.00 2.79 2.79 100 1018.7
20260901023305 26 70 0.0 0.0 0.00 2.79 2.79 100 1018.7
20260901022805 26 70 0.0 0.0 0.00 2.79 2.79 100 1018.8
20260901022306 26 70 0.0 0.0 0.00 2.79 2.79 100 1018.8
20260901021805 26 70 0.0 0.0 0.00 2.79 2.79 100 1018.8
20260901021305 26 70 0.0 0.0 0.00 2.79 2.79 100 1018.7
20260901020805 26 70 0.0 0.0 0.00 2.79 2.79 100 1018.6
20260901020305 26 70 0.0 0.0 0.00 2.79 2.79 100 1018.5
20260901020128 26 70 0.0 0.0 0.00 2.79 2.79 100 1018.4
20260901015805 26 70 0.0 0.0 0.00 2.79 2.79 100 1018.4
20260901015306 26 70 0.0 0.0 0.00 2.79 2.79 100 1018.5
20260901014805 26 70 0.0 0.0 0.00 2.79 2.79 100 1018.4
20260901014601 26 70 0.0 0.0 0.00 2.79 2.79 100 1018.5
20260901014305 26 70 0.0 0.0 0.00 2.79 2.79 100 1018.5
20260901013805 26 70 0.0 0.0 0.03 2.79 2.79 100 1018.4
20260901013305 26 70 0.0 0.0 0.03 2.79 2.79 100 1018.4
20260901012805 26 70 0.0 0.0 0.03 2.79 2.79 100 1018.4
20260901012306 26 70 0.0 0.0 0.03 2.79 2.79 100 1018.4
20260901011805 26 70 0.0 0.0 0.03 2.79 2.79 100 1018.5
20260901011305 26 70 0.0 0.0 0.05 2.79 2.79 100 1018.5
20260901010805 26 70 0.0 0.0 0.08 2.79 2.79 100 1018.3
20260901010305 26 70 0.0 0.0 0.10 2.79 2.79 100 1018.3
20260901005805 26 70 0.0 0.0 0.10 2.79 2.79 100 1018.3
20260901005307 26 70 0.0 0.0 0.10 2.79 2.79 100 1018.2
20260901004805 26 70 0.0 0.0 0.10 2.79 2.79 100 1018.2
20260901004305 26 70 0.0 0.0 0.10 2.79 2.79 100 1018.2
20260901003805 26 70 0.0 0.0 0.08 2.77 2.77 100 1018.0
20260901003305 26 70 0.0 0.0 0.08 2.77 2.77 100 1017.9
20260901002805 26 70 0.0 0.0 0.08 2.77 2.77 100 1018.1
20260901002306 26 70 0.0 0.0 0.08 2.77 2.77 100 1017.8
20260901001806 26 70 0.0 0.0 0.08 2.77 2.77 100 1017.9
20260901001306 26 70 0.0 0.0 0.05 2.74 2.74 100 1017.9
20260901000805 26 70 0.0 0.0 0.03 2.72 2.72 100 1018.0
20260901000306 26 70 0.0 0.0 0.00 2.69 2.69 100 1018.1
20260901000155 26 70 0.0 0.0 0.00 2.69 2.69 100 1018.0
20260831235806 26 70 0.0 0.0 0.00 2.69 2.69 100 1018.0
20260831235306 26 70 0.0 0.0 0.00 2.69 2.69 100 1017.9
20260831234806 26 70 0.0 0.0 0.03 2.69 2.69 100 1017.8
20260831234306 26 70 0.0 0.0 0.03 2.69 2.69 100 1017.9
20260831233806 26 70 0.0 0.0 0.03 2.69 2.69 100 1017.9
20260831233306 26 70 0.0 0.0 0.03 2.69 2.69 100 1018.0
20260831233203 26 70 0.0 0.0 0.05 2.69 2.69 100 1018.2
20260831232806 26 70 0.0 0.0 0.05 2.69 2.69 100 1018.2
20260831232306 26 70 0.0 0.0 0.08 2.69 2.69 100 1018.3
20260831231806 26 70 0.0 0.0 0.15 2.69 2.69 100 1018.3
20260831231306 26 70 0.0 0.0 0.33 2.69 2.69 100 1018.3
20260831230806 26 70 0.0 0.0 0.56 2.69 2.69 100 1018.3
20260831230306 26 70 0.0 0.0 0.71 2.72 2.69 100 1018.4
20260831225806 26 70 0.0 0.0 1.02 2.72 2.69 100 1018.5
20260831225306 26 70 0.0 0.0 1.40 2.72 2.69 100 1018.5
20260831224806 26 70 0.0 6.4 1.70 2.69 2.67 100 1018.4
20260831224306 26 35 0.0 6.4 1.98 2.69 2.67 100 1018.4
20260831223806 26 87 0.0 8.0 2.36 2.69 2.67 100 1018.3
20260831223306 26 88 6.4 9.7 2.67 2.69 2.67 100 1018.3
20260831222806 26 84 6.4 9.7 2.64 2.67 2.64 100 1018.1
20260831222306 26 56 0.0 11.3 2.62 2.64 2.62 100 1018.0
20260831221806 25 82 6.4 19.3 2.54 2.57 2.54 100 1017.8
20260831221306 25 102 12.9 12.9 2.36 2.39 2.36 100 1018.0
20260831220806 25 88 4.8 17.7 2.13 2.16 2.13 100 1018.0
20260831220306 25 101 17.7 22.5 1.98 2.01 1.98 100 1017.9
20260831215806 25 102 9.7 17.7 1.68 1.70 1.68 100 1017.9
20260831215306 25 74 14.5 24.1 1.30 1.32 1.30 100 1018.0
20260831214806 25 133 11.3 24.1 0.97 0.99 0.97 100 1018.0
20260831214306 26 59 9.7 24.1 0.69 0.71 0.69 100 1018.0
20260831213806 26 88 16.1 16.1 0.30 0.33 0.30 100 1018.0
20260831213306 27 82 14.5 17.7 0.00 0.03 0.00 100 1017.7
20260831212806 26 68 14.5 29.0 0.00 0.03 0.00 100 1017.7
20260831212307 29 57 19.3 25.7 0.00 0.03 0.00 100 1017.6
20260831211806 30 64 9.7 20.9 0.00 0.03 0.00 100 1017.5
20260831211306 32 101 3.2 8.0 0.00 0.03 0.00 100 1017.1
20260831210806 32 16 6.4 17.7 0.00 0.03 0.00 100 1017.0
20260831210306 32 326 6.4 17.7 0.00 0.13 0.00 100 1016.8
20260831205806 33 291 6.4 20.9 0.00 0.13 0.00 100 1016.8
20260831205306 33 317 6.4 17.7 0.00 0.13 0.00 100 1016.7
20260831204806 33 265 11.3 16.1 0.00 0.13 0.00 100 1016.9
20260831204306 33 341 9.7 20.9 0.00 0.13 0.00 100 1016.9
20260831203806 33 310 14.5 25.7 0.00 0.13 0.00 100 1016.8
20260831203307 33 299 8.0 14.5 0.00 0.13 0.00 100 1016.7
20260831202807 32 270 9.7 20.9 0.00 0.13 0.00 100 1016.8
20260831202306 32 307 11.3 19.3 0.00 0.13 0.00 100 1016.9
20260831201807 32 313 1.6 12.9 0.00 0.13 0.00 100 1016.9
20260831201307 32 331 8.0 12.9 0.00 0.13 0.00 100 1016.8
20260831200807 32 345 9.7 12.9 0.00 0.13 0.00 100 1016.9
20260831200631 32 9 3.2 9.7 0.00 0.86 0.00 100 1016.8
20260831200307 32 9 3.2 9.7 0.00 0.86 0.00 100 1016.8
20260831195807 33 358 4.8 8.0 0.00 0.86 0.00 100 1016.8
20260831195307 33 16 0.0 4.8 0.00 0.86 0.00 100 1016.8
20260831194807 33 1 3.2 6.4 0.00 0.86 0.00 100 1016.8
20260831194307 33 47 1.6 6.4 0.00 0.86 0.00 100 1016.8
20260831193807 34 305 0.0 6.4 0.00 0.86 0.00 100 1016.8
20260831193307 35 260 0.0 3.2 0.00 0.86 0.00 100 1016.8
20260831192807 35 234 3.2 9.7 0.00 0.86 0.00 100 1016.8
20260831192307 34 275 4.8 9.7 0.00 0.86 0.00 100 1016.9
20260831191807 33 153 4.8 9.7 0.00 0.86 0.00 100 1017.0
20260831191307 33 189 4.8 8.0 0.00 0.86 0.00 100 1016.9
20260831190807 33 206 6.4 12.9 0.00 0.86 0.00 100 1016.9
20260831190307 33 106 4.8 6.4 0.00 2.24 0.00 100 1017.0
20260831185807 33 18 0.0 8.0 0.00 2.24 0.00 100 1017.0
20260831185307 34 250 4.8 8.0 0.00 2.24 0.00 100 1017.1
20260831184807 35 187 6.4 11.3 0.00 2.24 0.00 100 1017.2
20260831184307 35 201 4.8 8.0 0.00 2.24 0.00 100 1017.2
20260831183807 35 210 3.2 8.0 0.00 2.24 0.00 100 1017.4
20260831183307 35 234 4.8 6.4 0.00 2.24 0.00 100 1017.5
20260831182807 35 222 6.4 9.7 0.00 2.24 0.00 100 1017.6
20260831182307 38 271 4.8 9.7 0.00 2.24 0.00 100 1017.7
20260831181807 37 11 0.0 1.6 0.00 2.24 0.00 100 1017.8
20260831181307 36 147 1.6 4.8 0.00 2.24 0.00 100 1017.9
20260831180807 36 106 4.8 6.4 0.00 2.24 0.00 100 1017.9
20260831180307 40 60 6.4 12.9 0.00 2.24 0.00 100 1017.9
20260831175807 47 206 0.0 4.8 0.00 2.24 0.00 100 1017.9
20260831175307 43 57 1.6 12.9 0.00 2.24 0.00 100 1018.0
20260831174807 41 232 1.6 11.3 0.00 2.24 0.00 100 1018.0
20260831174307 46 106 3.2 14.5 0.00 2.24 0.00 100 1018.1
20260831173807 46 219 12.9 14.5 0.00 2.24 0.00 100 1018.1
20260831173307 45 225 9.7 12.9 0.00 2.24 0.00 100 1018.2
20260831172807 43 194 11.3 11.3 0.00 2.24 0.00 100 1018.2
20260831172307 42 171 6.4 12.9 0.00 2.24 0.00 100 1018.2
20260831171807 45 243 0.0 11.3 0.00 2.24 0.00 100 1018.3
20260831171307 45 163 8.0 12.9 0.00 2.24 0.00 100 1018.4
20260831170807 46 182 6.4 12.9 0.00 2.24 0.00 100 1018.5
20260831170308 44 153 6.4 9.7 0.00 2.24 0.00 100 1018.6
20260831165807 39 147 4.8 8.0 0.00 2.24 0.00 100 1018.8
20260831165307 36 52 4.8 9.7 0.00 2.24 0.00 100 1018.8
20260831164807 43 189 8.0 9.7 0.00 2.24 0.00 100 1018.8
20260831164307 33 54 3.2 8.0 0.00 2.24 0.00 100 1018.9
20260831163808 33 168 0.0 8.0 0.00 2.24 0.00 100 1019.0
20260831163307 35 181 4.8 12.9 0.00 2.24 0.00 100 1018.9
20260831163207 42 184 3.2 9.7 0.00 2.24 0.00 100 1019.0
20260831162808 42 184 3.2 9.7 0.00 2.24 0.00 100 1019.0
20260831162308 38 99 3.2 9.7 0.00 2.24 0.00 100 1019.0
20260831161808 44 172 8.0 11.3 0.00 2.24 0.00 100 1019.1
20260831161309 36 147 6.4 11.3 0.00 2.24 0.00 100 1019.2
20260831160808 36 147 6.4 11.3 0.00 2.24 0.00 100 1019.2
20260831160308 34 153 1.6 6.4 0.00 2.24 0.00 100 1019.2
20260831155808 33 26 0.0 9.7 0.00 2.24 0.00 100 1019.3
20260831155308 33 77 8.0 8.0 0.00 2.24 0.00 100 1019.3
20260831154808 36 129 1.6 6.4 0.00 2.24 0.00 100 1019.3
20260831154308 41 33 3.2 8.0 0.00 2.24 0.00 100 1019.3
20260831153808 35 97 3.2 11.3 0.00 2.24 0.00 100 1019.2
20260831153308 35 120 6.4 11.3 0.00 2.24 0.00 100 1019.3
20260831152808 39 80 3.2 12.9 0.00 2.24 0.00 100 1019.2
20260831152308 36 88 9.7 11.3 0.00 2.24 0.00 100 1019.1
20260831151808 36 73 4.8 9.7 0.00 2.24 0.00 100 1019.2
20260831151632 35 78 6.4 6.4 0.00 2.24 0.00 100 1019.2
20260831151308 35 78 6.4 6.4 0.00 2.24 0.00 100 1019.2
20260831150808 34 95 3.2 11.3 0.00 2.24 0.00 100 1019.1
20260831150308 33 39 1.6 9.7 0.00 2.24 0.00 100 1019.1
20260831145808 35 106 3.2 12.9 0.00 2.24 0.00 100 1019.1
20260831145308 33 52 4.8 6.4 0.00 2.24 0.00 100 1019.0
20260831144808 33 101 6.4 14.5 0.00 2.24 0.00 100 1019.0
20260831144308 34 130 9.7 11.3 0.00 2.24 0.00 100 1019.1
20260831143808 34 112 8.0 14.5 0.00 2.24 0.00 100 1019.1
20260831143308 34 111 4.8 12.9 0.00 2.24 0.00 100 1019.0
20260831142808 36 118 6.4 9.7 0.00 2.24 0.00 100 1019.0
20260831142308 36 129 6.4 9.7 0.00 2.24 0.00 100 1018.9
20260831141808 37 14 6.4 9.7 0.00 2.24 0.00 100 1018.9
20260831141631 34 47 3.2 9.7 0.00 2.24 0.00 100 1019.0
20260831141308 34 47 3.2 9.7 0.00 2.24 0.00 100 1019.0
20260831140808 37 78 4.8 9.7 0.00 2.24 0.00 100 1019.1
20260831140308 32 91 4.8 11.3 0.00 2.24 0.00 100 1019.1
20260831135808 36 108 3.2 8.0 0.00 2.24 0.00 100 1019.0
20260831135308 37 71 8.0 8.0 0.00 2.24 0.00 100 1019.0
20260831134808 36 52 1.6 8.0 0.00 2.24 0.00 100 1019.0
20260831134308 35 71 3.2 8.0 0.00 2.24 0.00 100 1019.0
20260831133808 35 42 4.8 9.7 0.00 2.24 0.00 100 1018.9
20260831133308 34 60 1.6 4.8 0.00 2.24 0.00 100 1018.8
20260831132808 33 57 3.2 6.4 0.00 2.24 0.00 100 1018.8
20260831132308 33 68 3.2 8.0 0.00 2.24 0.00 100 1018.8
20260831131808 33 33 1.6 4.8 0.00 2.24 0.00 100 1018.8
20260831131308 33 12 0.0 4.8 0.00 2.24 0.00 100 1018.7
20260831131022 33 40 0.0 4.8 0.00 2.24 0.00 100 1018.6
20260831130808 33 40 0.0 4.8 0.00 2.24 0.00 100 1018.6
20260831130308 32 42 4.8 6.4 0.00 2.24 0.00 100 1018.6
20260831125808 31 75 1.6 6.4 0.00 2.24 0.00 100 1018.6
20260831125308 31 82 0.0 6.4 0.00 2.24 0.00 100 1018.6
20260831124808 30 75 4.8 6.4 0.00 2.24 0.00 100 1018.6
20260831124308 28 33 0.0 0.0 0.00 2.24 0.00 100 1018.6
20260831123809 26 33 0.0 0.0 0.00 2.24 0.00 100 1018.5
20260831123308 25 33 0.0 0.0 0.00 2.24 0.00 100 1018.5
20260831122808 25 33 0.0 4.8 0.00 2.24 0.00 100 1018.3
20260831122309 25 37 3.2 3.2 0.00 2.24 0.00 100 1018.4
20260831121809 25 53 0.0 0.0 0.00 2.24 0.00 100 1018.3
20260831121309 24 53 0.0 4.8 0.00 2.24 0.00 100 1018.2
20260831120809 24 73 0.0 0.0 0.00 2.24 0.00 100 1018.1
20260831120309 24 73 0.0 0.0 0.00 2.24 0.00 100 1018.0
20260831115809 23 73 0.0 1.6 0.00 2.24 0.00 100 1018.0
20260831115309 23 60 0.0 0.0 0.00 2.24 0.00 100 1017.9
20260831114809 23 60 0.0 0.0 0.00 2.24 0.00 100 1017.8
20260831114309 23 60 0.0 0.0 0.00 2.24 0.00 100 1017.8
20260831113809 23 60 0.0 4.8 0.00 2.24 0.00 100 1017.7
20260831113309 23 64 0.0 0.0 0.00 2.24 0.00 100 1017.7
20260831112809 23 64 0.0 4.8 0.00 2.24 0.00 100 1017.7
20260831112309 22 54 4.8 4.8 0.00 2.24 0.00 100 1017.5
20260831111809 22 56 0.0 0.0 0.00 2.24 0.00 100 1017.4
20260831111309 22 56 0.0 0.0 0.00 2.24 0.00 100 1017.3
20260831110809 22 56 0.0 0.0 0.00 2.24 0.00 100 1017.2
20260831110309 22 56 0.0 0.0 0.00 2.24 0.00 100 1017.2
20260831110025 22 56 0.0 0.0 0.00 2.24 0.00 100 1017.0
20260831105809 22 56 0.0 0.0 0.00 2.24 0.00 100 1017.0
20260831105309 22 56 0.0 0.0 0.00 2.24 0.00 100 1016.9
20260831104809 22 56 0.0 0.0 0.00 2.24 0.00 100 1017.0
20260831104309 22 56 0.0 0.0 0.00 2.24 0.00 100 1017.0
20260831103809 22 56 0.0 0.0 0.00 2.24 0.00 100 1016.9
20260831103309 22 56 0.0 0.0 0.00 2.24 0.00 100 1017.0
20260831102809 22 56 0.0 0.0 0.00 2.24 0.00 100 1016.9
20260831102309 22 56 0.0 0.0 0.00 2.24 0.00 100 1016.9
20260831101809 22 56 0.0 0.0 0.00 2.24 0.00 100 1017.0
20260831101309 22 56 0.0 0.0 0.00 2.24 0.00 100 1017.0
20260831100809 22 56 0.0 0.0 0.00 2.24 0.00 100 1017.0
20260831100309 22 56 0.0 0.0 0.00 2.24 0.00 100 1017.0
20260831095809 22 56 0.0 0.0 0.00 2.24 0.00 100 1017.1